(394602) = 2005 JV153 = 2007 VP259

Discovered at Kitt Peak on 1996-04-24 by Spacewatch.

Orbit

Orbit type: Main Belt

Note: WebGL enabled browser required.

epoch2023-02-25.0
epoch JD2460000.5
perihelion date2022-11-18.42518
perihelion JD2459901.92518
argument of perihelion (°)71.64671
ascending node (°)110.54473
inclination (°)7.54467
eccentricity0.1253475
perihelion distance (AU)2.3842112
Tisserand w.r.t. Jupiter3.3
ΔV w.r.t. Earth (km/sec)10.0
semimajor axis (AU)2.7258954
mean anomaly (°)21.58768
mean daily motion (°/day)0.21899800
aphelion distance (AU)3.068
period (years)4.5
P-vector [x]-0.99157441
P-vector [y]-0.08200856
P-vector [z]0.10027355
Q-vector [x]0.04079103
Q-vector [y]-0.93237860
Q-vector [z]-0.35917438
absolute magnitude16.79
phase slope0.15
uncertainty0
referenceMPO 745323
observations used337
oppositions12
arc length (days)9920
first opposition used1996
last opposition used2023
residual rms (arc-secs)0.62
perturbers coarse indicatorM-v
perturbers precise indicator003Ek
first observation date used1996-04-24.0
last observation date used2023-06-22.0
computer nameMPCLINUX
JD of orbit computation2456877.924338
perihelion JD uncertainty (days)1.8736E-04
argument of perihelion uncertainty (°)7.3055E-05
ascending node uncertainty (°)5.7275E-05
inclination uncertainty (°)5.1529E-06
eccentricity uncertainty 6.3028E-08
perihelion distance uncertainty (AU)1.7058E-07
Minimum Orbit Intersection Distances (in AU)
for orbit epoch: 2460000.5, reference: E2023-MB3
Mercury1.9762
Venus1.66636
Earth1.40089
Mars0.74804
Jupiter1.92978
Saturn6.23717
Uranus16.0478
Neptune26.8186

Observations

338 total observations over interval: 1996 04 24.39390 – 2023 06 22.317098
These data are available for download (format description).

Date (UT) J2000 RA J2000 Dec Magn Location Ref
1996 04 24.39390 15 36 16.64 -07 45 10.9 20.7 V 691 – Steward Observatory, Kitt Peak-Spacewatch MPS 468675
1996 04 24.41505 15 36 15.65 -07 45 07.7   691 – Steward Observatory, Kitt Peak-Spacewatch MPS 468675
1996 04 24.43614 15 36 14.71 -07 45 03.9   691 – Steward Observatory, Kitt Peak-Spacewatch MPS 468675
1996 05 10.34828 15 23 03.70 -07 06 21.2 20.1 V 691 – Steward Observatory, Kitt Peak-Spacewatch MPS 468675
1996 05 10.36995 15 23 02.52 -07 06 18.4   691 – Steward Observatory, Kitt Peak-Spacewatch MPS 468675
1996 05 10.39128 15 23 01.34 -07 06 16.5   691 – Steward Observatory, Kitt Peak-Spacewatch MPS 468675
2005 05 04.29650 15 32 47.92 -07 39 26.1 19.8 V 691 – Steward Observatory, Kitt Peak-Spacewatch MPS 135415
2005 05 04.31729 15 32 46.81 -07 39 23.1 19.9 V 691 – Steward Observatory, Kitt Peak-Spacewatch MPS 135415
2005 05 04.33478 15 32 45.87 -07 39 20.8 19.9 V 691 – Steward Observatory, Kitt Peak-Spacewatch MPS 135415
2005 05 16.28819 15 22 13.40 -07 19 06.2 19.8 V 691 – Steward Observatory, Kitt Peak-Spacewatch MPS 135415
2005 05 16.30557 15 22 12.45 -07 19 04.9 19.8 V 691 – Steward Observatory, Kitt Peak-Spacewatch MPS 135415
2005 05 16.32295 15 22 11.50 -07 19 03.8 19.8 V 691 – Steward Observatory, Kitt Peak-Spacewatch MPS 135415
2007 11 15.24596 03 17 36.81 +07 58 18.8 21.1 V G96 – Mt. Lemmon Survey MPS 228437
2007 11 15.25140 03 17 36.52 +07 58 18.0 21.0 V G96 – Mt. Lemmon Survey MPS 228437
2007 11 15.25694 03 17 36.20 +07 58 17.4 20.6 V G96 – Mt. Lemmon Survey MPS 228437
2007 11 15.26237 03 17 35.88 +07 58 16.4 20.7 V G96 – Mt. Lemmon Survey MPS 228437
2007 11 17.31029 03 15 43.77 +07 53 39.2 19.9 V G96 – Mt. Lemmon Survey MPS 228437
2007 11 17.31781 03 15 43.34 +07 53 38.2 19.8 V G96 – Mt. Lemmon Survey MPS 228437
2007 11 17.32518 03 15 42.94 +07 53 37.1 19.9 V G96 – Mt. Lemmon Survey MPS 228437
2007 11 17.33263 03 15 42.51 +07 53 36.1 20.0 V G96 – Mt. Lemmon Survey MPS 228437
2007 12 18.15946 02 53 04.92 +07 41 45.0 20.6 V G96 – Mt. Lemmon Survey MPS 468675
2007 12 18.16622 02 53 04.70 +07 41 45.6 21.4 V G96 – Mt. Lemmon Survey MPS 468675
2007 12 18.17301 02 53 04.56 +07 41 46.5 21.0 V G96 – Mt. Lemmon Survey MPS 468675
2007 12 18.17978 02 53 04.34 +07 41 46.8 20.7 V G96 – Mt. Lemmon Survey MPS 468675
2008 12 05.49992 10 52 02.55 +11 11 15.8 21.3 V 691 – Steward Observatory, Kitt Peak-Spacewatch MPS 468675
2008 12 05.51599 10 52 03.52 +11 11 12.3 21.0 V 691 – Steward Observatory, Kitt Peak-Spacewatch MPS 468675
2008 12 05.52860 10 52 04.28 +11 11 11.2 21.2 V 691 – Steward Observatory, Kitt Peak-Spacewatch MPS 468675
2009 01 25.37824 11 18 11.70 +12 28 14.0 20.3 V 703 – Catalina Sky Survey MPS 468675
2009 01 25.38605 11 18 11.62 +12 28 17.1 20.6 V 703 – Catalina Sky Survey MPS 468675
2009 01 25.39398 11 18 11.52 +12 28 19.0 20.8 V 703 – Catalina Sky Survey MPS 468675
2009 01 25.40184 11 18 11.48 +12 28 23.0 20.2 V 703 – Catalina Sky Survey MPS 468675
2009 03 03.25031 10 57 38.19 +17 15 01.2 20.2 V 703 – Catalina Sky Survey MPS 469141
2009 03 03.25700 10 57 37.87 +17 15 03.3 19.9 V 703 – Catalina Sky Survey MPS 469141
2009 03 03.26369 10 57 37.58 +17 15 07.1 19.8 V 703 – Catalina Sky Survey MPS 469141
2009 03 03.27037 10 57 37.36 +17 15 09.8 19.0 V 703 – Catalina Sky Survey MPS 469141
2014 02 28.55318 15 37 36.820 -10 01 29.14 20.7 w F51 – Pan-STARRS 1, Haleakala MPS 504035
2014 02 28.56512 15 37 37.342 -10 01 28.87 20.7 w F51 – Pan-STARRS 1, Haleakala MPS 504035
2014 02 28.57706 15 37 37.857 -10 01 28.79 20.7 w F51 – Pan-STARRS 1, Haleakala MPS 504035
2014 02 28.58898 15 37 38.370 -10 01 28.58 20.8 w F51 – Pan-STARRS 1, Haleakala MPS 504035
2014 04 30.13396 15 34 02.83 -07 41 05.6 20.1 R J04 – ESA Optical Ground Station, Tenerife MPS 513845
2014 04 30.14553 15 34 02.26 -07 41 03.8 19.5 R J04 – ESA Optical Ground Station, Tenerife MPS 513845
2014 04 30.15711 15 34 01.69 -07 41 01.9 19.2 R J04 – ESA Optical Ground Station, Tenerife MPS 513845
2014 04 30.16868 15 34 01.09 -07 41 00.2 19.4 R J04 – ESA Optical Ground Station, Tenerife MPS 513845
2014 05 04.44907 15 30 28.109 -07 30 21.02 19.8 w F51 – Pan-STARRS 1, Haleakala MPS 513845
2014 05 04.46100 15 30 27.469 -07 30 19.39 19.6 w F51 – Pan-STARRS 1, Haleakala MPS 513845
2014 05 04.47294 15 30 26.834 -07 30 17.75 19.7 w F51 – Pan-STARRS 1, Haleakala MPS 513845
2014 05 04.48486 15 30 26.196 -07 30 16.04 19.8 w F51 – Pan-STARRS 1, Haleakala MPS 513845
2014 05 10.41948 15 25 15.443 -07 18 09.92 19.5 i F51 – Pan-STARRS 1, Haleakala MPS 513845
2014 05 10.43152 15 25 14.780 -07 18 08.76 19.4 i F51 – Pan-STARRS 1, Haleakala MPS 513845
2014 05 10.44349 15 25 14.106 -07 18 07.44 19.5 i F51 – Pan-STARRS 1, Haleakala MPS 513845
2014 05 10.45547 15 25 13.445 -07 18 06.19 19.3 i F51 – Pan-STARRS 1, Haleakala MPS 513845
2014 05 26.37502 15 11 33.709 -07 05 55.11 20.8 w F51 – Pan-STARRS 1, Haleakala MPS 517881
2014 05 26.38738 15 11 33.099 -07 05 55.24 20.8 w F51 – Pan-STARRS 1, Haleakala MPS 517881
2014 05 26.39974 15 11 32.492 -07 05 55.60 20.8 w F51 – Pan-STARRS 1, Haleakala MPS 517881
2014 05 26.41210 15 11 31.869 -07 05 55.60 20.6 w F51 – Pan-STARRS 1, Haleakala MPS 517881
2014 06 05.34564 15 04 34.651 -07 16 10.08 19.7 i F51 – Pan-STARRS 1, Haleakala MPS 518815
2014 06 05.35776 15 04 34.168 -07 16 10.99 19.8 i F51 – Pan-STARRS 1, Haleakala MPS 518815
2014 06 05.36988 15 04 33.708 -07 16 12.46 20.0 i F51 – Pan-STARRS 1, Haleakala MPS 518815
2014 06 28.29622 14 57 06.991 -08 31 33.05 20.6 w F51 – Pan-STARRS 1, Haleakala MPS 522203
2014 06 28.30696 14 57 06.953 -08 31 35.97 20.6 w F51 – Pan-STARRS 1, Haleakala MPS 522203
2014 06 28.31769 14 57 06.906 -08 31 39.00 20.5 w F51 – Pan-STARRS 1, Haleakala MPS 522203
2014 06 28.32841 14 57 06.865 -08 31 42.05 20.5 w F51 – Pan-STARRS 1, Haleakala MPS 522203
2014 06 30.32595 14 57 06.242 -08 41 13.55 21.3 w F51 – Pan-STARRS 1, Haleakala MPS 522792
2014 06 30.33923 14 57 06.225 -08 41 17.17 21.4 w F51 – Pan-STARRS 1, Haleakala MPS 522792
2014 06 30.35240 14 57 06.234 -08 41 21.07 21.6 w F51 – Pan-STARRS 1, Haleakala MPS 522793
2014 07 03.31963 14 57 16.881 -08 56 14.11 20.5 i F51 – Pan-STARRS 1, Haleakala MPS 522203
2014 07 03.33227 14 57 16.925 -08 56 17.89 20.3 i F51 – Pan-STARRS 1, Haleakala MPS 522203
2014 07 03.34491 14 57 16.979 -08 56 21.54 20.4 i F51 – Pan-STARRS 1, Haleakala MPS 522203
2014 07 03.36408 14 57 17.082 -08 56 27.54 20.2 i F51 – Pan-STARRS 1, Haleakala MPS 522203
2014 07 26.26456 15 05 45.734 -11 13 48.72 21.6 w F51 – Pan-STARRS 1, Haleakala MPS 525471
2014 07 26.27656 15 05 46.166 -11 13 53.59 21.8 w F51 – Pan-STARRS 1, Haleakala MPS 525471
2014 07 26.28853 15 05 46.596 -11 13 58.39 21.5 w F51 – Pan-STARRS 1, Haleakala MPS 525471
2014 07 26.30048 15 05 47.033 -11 14 03.13 21.5 w F51 – Pan-STARRS 1, Haleakala MPS 525471
2015 07 14.54672 22 48 02.541 -13 43 29.48 21.6 w F51 – Pan-STARRS 1, Haleakala MPS 615891
2015 07 14.55806 22 48 02.417 -13 43 32.67 21.5 w F51 – Pan-STARRS 1, Haleakala MPS 615891
2015 07 14.56942 22 48 02.255 -13 43 36.01 21.6 w F51 – Pan-STARRS 1, Haleakala MPS 615891
2015 08 10.47201 22 35 25.130 -16 22 00.84 21.1 w F51 – Pan-STARRS 1, Haleakala MPS 621096
2015 08 10.48396 22 35 24.602 -16 22 05.64 21.0 w F51 – Pan-STARRS 1, Haleakala MPS 621096
2015 08 10.49564 22 35 24.078 -16 22 10.48 21.0 w F51 – Pan-STARRS 1, Haleakala MPS 621096
2015 08 10.50777 22 35 23.553 -16 22 15.20 20.8 w F51 – Pan-STARRS 1, Haleakala MPS 621096
2015 08 12.46879 22 33 58.585 -16 35 26.75 20.8 w F51 – Pan-STARRS 1, Haleakala MPS 621096
2015 08 12.48071 22 33 58.041 -16 35 31.38 20.7 w F51 – Pan-STARRS 1, Haleakala MPS 621096
2015 08 12.49261 22 33 57.491 -16 35 36.29 20.8 w F51 – Pan-STARRS 1, Haleakala MPS 621096
2015 10 03.27417 21 58 34.984 -20 24 44.66 21.6 w F51 – Pan-STARRS 1, Haleakala MPS 631132
2015 10 03.28515 21 58 34.758 -20 24 45.22 21.6 w F51 – Pan-STARRS 1, Haleakala MPS 631132
2015 10 03.29612 21 58 34.552 -20 24 45.69 21.7 w F51 – Pan-STARRS 1, Haleakala MPS 631132
2015 10 03.30710 21 58 34.306 -20 24 46.20 21.6 w F51 – Pan-STARRS 1, Haleakala MPS 631132
2016 11 10.31045 03 23 17.19 +08 19 09.6 20.5 V G96 – Mt. Lemmon Survey MPS 745026
